sat.trackr.live / text

‹ back to catalog

NETSAT-1

NORAD 46506 · 2020-068W

PAYLOAD ACTIVE UNKNOWN

§ Identity

Operator
Country
GER
Launch date
2020-09-28
Launch site
PLMSC
Launch vehicle
Mass (kg)
RCS (m²)

Purposes: tech_demo

External: N2YO · Heavens-Above · Gunter

§ Orbital elements

Epoch: 2026-05-24T23:36:28.301760Z

Period
93.87 min
Inclination
97.8751°
Eccentricity
0.0006943
Mean motion
15.33992594 rev/d
Perigee alt
459.2 km
Apogee alt
468.7 km
Semi-major
6,842.1 km
B*
3.5667e-4
RAAN
144.2224°
Arg perigee
92.3702°
Mean anomaly
267.8334°
Rev number
31,174

§ Raw data

NETSAT-11 46506U 20068W   26144.98366090  .00011656  00000+0  35667-3 0  99932 46506  97.8751 144.2224 0006943  92.3702 267.8334 15.33992594311743

JSON: /api/v1/satellites/46506 · /tle

For live sub-satellite position, see the globe view (requires WebGL).

§ Visibility from observer

Set your observer location to see the next 7 days of passes ≥ 10°. The values pass through the URL so the page stays shareable.

No JS? Fill the form by hand. The geolocation button needs JavaScript.

§ Radio — SatNOGS DB

ModeDescriptionDownlinkUplink
FSK AX.25 G3RUH Telemetry 435.600 MHz

1 transmitter · refreshed weekly from db.satnogs.org